Location: St. Louis
(38.6270°N, 90.1994°W)
Time: 05:21:34
(UTC-05:00)

RS-15 - Pass Details

Date: 31 January 2022
Orbit: 1881 x 2163 km, 64.8° (Epoch: 20 May)

Event Time Altitude Azimuth Distance (km) Brightness Sun altitude
Rises 17:50:44 0° 228° (SW) 5,392 11.7 -6.2°
Reaches altitude 10° 17:54:05 10° 232° (SW) 4,429 11.2 -6.8°
Maximum altitude 18:05:23 57° 310° (NW) 2,363 8.7 -8.9°
Drops below altitude 10° 18:17:20 10° 28° (NNE) 4,653 9.6 -11.2°
Sets 18:21:00 0° 33° (NNE) 5,678 10.0 -11.9°
